Weather History for Portland Troutdale, OR

Change the Weather History Date:

Thursday, November 1, 2012

  Actual Average Record
Temperature  
Mean Temperature 57 °F 49 °F  
Max Temperature 62 °F 58 °F 68 °F (1976)
Min Temperature 51 °F 41 °F 29 °F (1995)
Degree Days  
Heating Degree Days 8 16  
Month to date heating degree days 8 16  
Cooling Degree Days 0 0  
Month to date cooling degree days 0 0  
Growing Degree Days 7 (Base 50)    
Moisture  
Dew Point 51 °F    
Average Humidity 83    
Maximum Humidity 93    
Minimum Humidity 72    
Precipitation  
Precipitation 0.44 in 0.21 in 2.60 in (1994)
Month to date precipitation 0.44 0.21  
Year to date precipitation 36.49 32.73  
Snow  
Snow 0.00 in - - ()
Month to date snowfall 0.0  
Since 1 July snowfall 0.0  
Since 1 September snowfall 0.0  
Snow Depth 0.00 in    
Sea Level Pressure  
Sea Level Pressure 29.90 in    
Wind  
Wind Speed 7 mph (South)    
Max Wind Speed 20 mph    
Max Gust Speed 26 mph    
Visibility 9 miles    
Events Rain    
T = Trace of Precipitation, MM = Missing Value Source: NWS Daily Summary

Daily Weather History Graph

Daily Weather History Graph

Search for Another Location

Airport:

Trip Planner

Search our weather history database for the weather conditions in past years. The results will help you decide how hot, cold, wet, or windy it might be!

Date:

Astronomy

Nov. 01, 2012 Rise Set
Actual Time 7:50 AM PDT 5:55 PM PDT
Civil Twilight 7:19 AM PDT 6:26 PM PDT
Nautical Twilight 6:43 AM PDT 7:01 PM PDT
Astronomical Twilight 6:09 AM PDT 7:36 PM PDT
Moon 7:50 PM PDT (11/1) 10:33 AM PDT (11/1)
Length of Visible Light 11h 07m
Length of Day
10h 05m
Waning Gibbous, 92% of the Moon is Illuminated
Nov 1
Waning Gibbous
Nov 6
Last Quarter
Nov 13
New
Nov 20
First Quarter
Nov 28
Full

Hourly Weather History & Observations

Time (PDT) Temp. Dew Point Humidity Pressure Visibility Wind Dir Wind Speed Gust Speed Precip Events Conditions
12:53 AM 55.0 °F 51.1 °F 86% 29.74 in 10.0 mi SE 3.5 mph - 0.00 in   Overcast
1:53 AM 53.1 °F 50.0 °F 89% 29.76 in 10.0 mi Calm Calm - N/A   Overcast
2:53 AM 54.0 °F 50.0 °F 86% 29.77 in 10.0 mi ESE 3.5 mph - 0.00 in Rain Light Rain
3:53 AM 57.0 °F 46.9 °F 69% 29.77 in 10.0 mi South 5.8 mph - 0.00 in Rain Light Rain
4:53 AM 54.0 °F 48.0 °F 80% 29.77 in 10.0 mi ESE 3.5 mph - 0.00 in Rain Light Rain
5:53 AM 53.1 °F 48.9 °F 86% 29.78 in 10.0 mi East 5.8 mph - 0.01 in Rain Light Rain
7:53 AM 53.1 °F 50.0 °F 89% 29.78 in 10.0 mi East 6.9 mph - 0.09 in Rain Rain
8:53 AM 53.1 °F 48.9 °F 86% 29.80 in 3.0 mi ESE 5.8 mph - 0.12 in Rain Rain
9:03 AM 53.6 °F 50.0 °F 88% 29.80 in 1.8 mi East 3.5 mph - 0.03 in Rain Heavy Rain
9:20 AM 53.6 °F 50.0 °F 88% 29.80 in 2.5 mi ENE 6.9 mph - 0.08 in Rain Rain
9:46 AM 53.6 °F 50.0 °F 88% 29.81 in 4.0 mi ESE 4.6 mph - 0.13 in Rain Light Rain
10:18 AM 55.4 °F 51.8 °F 88% 29.82 in 10.0 mi SSW 15.0 mph 25.3 mph 0.00 in   Overcast
10:53 AM 55.9 °F 51.1 °F 84% 29.85 in 10.0 mi SW 16.1 mph 24.2 mph 0.00 in Rain Light Rain
11:53 AM 57.9 °F 51.1 °F 78% 29.89 in 10.0 mi SSW 11.5 mph 20.7 mph 0.00 in   Overcast
12:07 PM 59.0 °F 51.8 °F 77% 29.90 in 10.0 mi SW 15.0 mph 23.0 mph N/A   Overcast
12:53 PM 59.0 °F 52.0 °F 78% 29.92 in 10.0 mi SW 12.7 mph - N/A   Overcast
1:53 PM 60.1 °F 52.0 °F 75% 29.93 in 10.0 mi SW 12.7 mph - N/A   Overcast
2:23 PM 60.8 °F 53.6 °F 77% 29.93 in 10.0 mi SW 11.5 mph 21.9 mph N/A   Overcast
2:30 PM 60.8 °F 51.8 °F 72% 29.93 in 10.0 mi SSW 11.5 mph 19.6 mph N/A   Overcast
2:53 PM 61.0 °F 52.0 °F 72% 29.93 in 10.0 mi SSW 13.8 mph 19.6 mph N/A   Mostly Cloudy
3:53 PM 61.0 °F 52.0 °F 72% 29.94 in 10.0 mi SSW 9.2 mph - N/A   Overcast
4:53 PM 61.0 °F 52.0 °F 72% 29.95 in 10.0 mi SSW 9.2 mph - N/A   Overcast
5:53 PM 59.0 °F 52.0 °F 78% 29.96 in 10.0 mi SSW 8.1 mph - N/A   Overcast
6:51 PM 57.2 °F 53.6 °F 88% 29.99 in 10.0 mi SW 5.8 mph - 0.03 in Rain Light Rain
6:53 PM 57.9 °F 53.1 °F 84% 30.00 in 10.0 mi SW 5.8 mph - 0.03 in Rain Light Rain
7:12 PM 57.2 °F 53.6 °F 88% 30.00 in 10.0 mi SW 4.6 mph - 0.01 in Rain Light Rain
7:53 PM 57.0 °F 53.1 °F 87% 30.01 in 9.0 mi Calm Calm - 0.01 in Rain Light Rain
8:53 PM 55.9 °F 53.1 °F 90% 30.02 in 10.0 mi Calm Calm - 0.00 in   Overcast
9:33 PM 55.4 °F 53.6 °F 94% 30.03 in 10.0 mi Calm Calm - N/A   Overcast
9:53 PM 55.9 °F 53.1 °F 90% 30.04 in 10.0 mi Calm Calm - N/A   Overcast
10:53 PM 54.0 °F 52.0 °F 93% 30.06 in 10.0 mi East 3.5 mph - N/A   Overcast
11:53 PM 54.0 °F 51.1 °F 90% 30.04 in 10.0 mi ENE 3.5 mph - N/A   Scattered Clouds